Location: Nians�bougou
(13.2321°N, 4.9818°W)
Time: 10:22:49
(UTC+00:00)

GPS 2-12 Rocket1 - Pass Details

Date: 18 February 2020
Orbit: 586 x 652 km, 20.0° (Epoch: 28 March)

Event Time Altitude Azimuth Distance (km) Brightness Sun altitude
Exits shadow 05:58:47 15° 287° (WNW) 1,710 4.7 -11.1°
Maximum altitude 06:02:43 85° 16° (NNE) 632 3.1 -10.1°
Drops below altitude 10° 06:07:22 10° 104° (ESE) 1,974 7.3 -9.0°
Sets 06:09:41 0° 105° (ESE) 2,868 8.9 -8.5°
